Weather History for Del Bajio, Mexico

Change the Weather History Date:

Wednesday, November 7, 2012

  Actual Average Record
Temperature  
Mean Temperature 64 °F -  
Max Temperature 80 °F 78 °F 84 °F (1996)
Min Temperature 48 °F 47 °F 33 °F (2010)
Degree Days  
Heating Degree Days 1    
Growing Degree Days 14 (Base 50)    
Moisture  
Dew Point 35 °F    
Average Humidity 38    
Maximum Humidity 67    
Minimum Humidity 16    
Precipitation  
Precipitation 0.00 in - - ()
Sea Level Pressure  
Sea Level Pressure 30.19 in    
Wind  
Wind Speed 4 mph ()    
Max Wind Speed 16 mph    
Max Gust Speed -    
Visibility 9.1 miles    
Events      
Averages and records for this station are not official NWS values.
T = Trace of Precipitation, MM = Missing Value Source: Averaged Metar Reports

Daily Weather History Graph

Daily Weather History Graph

Search for Another Location

Airport:

Trip Planner

Search our weather history database for the weather conditions in past years. The results will help you decide how hot, cold, wet, or windy it might be!

Date:

Astronomy

Nov. 07, 2012 Rise Set
Actual Time 6:51 AM CST 6:07 PM CST
Civil Twilight 6:28 AM CST 6:30 PM CST
Nautical Twilight 6:02 AM CST 6:56 PM CST
Astronomical Twilight 5:36 AM CST 7:23 PM CST
Moon 12:38 AM CST (11/7) 1:30 PM CST (11/7)
Length of Visible Light 12h 01m
Length of Day
11h 15m
Last Quarter, 43% of the Moon is Illuminated
Nov 7
Last Quarter
Nov 13
New
Nov 20
First Quarter
Nov 28
Full
Dec 6
Last Quarter

Hourly Weather History & Observations

Time (CST) Temp. Dew Point Humidity Pressure Visibility Wind Dir Wind Speed Gust Speed Precip Events Conditions
3:55 AM 53.6 °F 37.4 °F 54% 30.30 in 8.0 mi NE 4.6 mph - N/A   Scattered Clouds
4:48 AM 50.0 °F 37.4 °F 62% 30.30 in 8.0 mi East 4.6 mph - N/A   Scattered Clouds
6:47 AM 48.2 °F 37.4 °F 66% 30.33 in 10.0 mi NNE 3.5 mph - N/A   Scattered Clouds
7:46 AM 51.8 °F 41.0 °F 67% 30.34 in 8.0 mi WSW 4.6 mph - N/A   Scattered Clouds
8:43 AM 57.2 °F 42.8 °F 59% 30.09 in 10.0 mi Calm Calm - N/A   Scattered Clouds
9:46 AM 66.2 °F 33.8 °F 30% 30.38 in 10.0 mi Calm Calm - N/A   Scattered Clouds
10:42 AM 69.8 °F 37.4 °F 31% 30.35 in 10.0 mi Calm Calm - N/A   Partly Cloudy
11:43 AM 73.4 °F 32.0 °F 22% 29.97 in 10.0 mi Calm Calm - N/A   Partly Cloudy
12:45 PM 77.0 °F 30.2 °F 18% 30.27 in 10.0 mi SSW 6.9 mph - N/A   Partly Cloudy
1:44 PM 78.8 °F 28.4 °F 16% 30.24 in 10.0 mi Calm Calm - N/A   Partly Cloudy
2:55 PM 80.6 °F 30.2 °F 16% 29.83 in 10.0 mi WSW 5.8 mph - N/A   Partly Cloudy
3:46 PM 80.6 °F 32.0 °F 17% 30.21 in 10.0 mi NNE 4.6 mph - N/A   Partly Cloudy
5:43 PM 71.6 °F 32.0 °F 23% 29.88 in 10.0 mi ENE 6.9 mph - N/A   Partly Cloudy
6:45 PM 64.4 °F 33.8 °F 32% 30.24 in 8.0 mi NE 8.1 mph - N/A   Partly Cloudy
7:45 PM 62.6 °F 35.6 °F 37% 30.27 in 8.0 mi ENE 12.7 mph - N/A   Partly Cloudy
8:50 PM 60.8 °F 35.6 °F 39% 30.00 in 8.0 mi NE 12.7 mph - N/A   Partly Cloudy
9:44 PM 60.8 °F 37.4 °F 42% 30.30 in 8.0 mi NE 15.0 mph - N/A   Clear
10:45 PM 60.8 °F 37.4 °F 42% 30.30 in 8.0 mi NE 16.1 mph - N/A   Clear
11:41 PM 55.4 °F 35.6 °F 47% 29.96 in 8.0 mi East 6.9 mph - N/A   Clear